Location: Waco, TX
(31.5480°N, 97.1670°W)
Time: 16:06:42
(UTC-06:00)

ISS - Pass Details

Date: 12 November 2018
Orbit: 402 x 409 km, 51.6° (Epoch: 14 November)

Event Time Altitude Azimuth Distance (km) Brightness Sun altitude
Rises 00:03:40 0° 259° (W) 2,302 - -76.0°
Reaches altitude 10° 00:06:13 10° 280° (W) 1,447 - -76.1°
Maximum altitude 00:08:29 17° 324° (NW) 1,089 - -76.1°
Drops below altitude 10° 00:10:45 10° 9° (N) 1,452 - -76.1°
Sets 00:13:19 0° 30° (NNE) 2,314 - -76.1°
